THOR ABLESTAR DEB, 1425

Orbit data source: Space-Track

THOR ABLESTAR DEB, 1425 is space debris in LEO originally from a launch on Thu, 24 Jun 1965 UTC launched from the Air Force Western Test Range (AFWTR). Debris objects in space refer to the collection of defunct objects orbiting the Earth. Examples of debris include non-operational satellites, rocket bodies, and fragments generated from explosions, collisions, or faulty payload assembly.

Loading next visibility...
THOR ABLESTAR DEB details
Identifier
1425, 1965-048C
Orbit
LEO
Last TLE update20 hours ago
Origin
Flag of USUSN BuWeps (US)
ManufacturerAPL
MissionSpacecraft
Bus & MotorUnknown
MassUnknown
Launch date (UTC)
1965-06-24 (59 years ago)
Launch vehicleUnknown
Launch site
Air Force Western Test Range (AFWTR)
Object type
Payload
Rocket body
Debris
Shape & HBRUnknown
Radar Cross Section0.610 m², Medium (>0.1 m² and < 1m²)

Expand to show TLE details & history

TLE from 20 hours ago
0 THOR ABLESTAR DEB
1 01425U 65048C   24355.81008365  .00000092  00000-0  12966-3 0  9993
2 01425  89.8893 291.4537 0073653 354.2663  65.6293 13.48898338927175
Epoch: 2024-12-20T19:26Z
Definitive object data (Epoch: 2024-12-20T19:26:31.227Z)
Latitude60.75624°
Longitude-89.84997°
Altitude1,064.438 km
Speed7.336 km/s
True Right ascension19h 26m 36s
True Declination60° 36' 56"
Sunlit
Object was in daylight at TLE epoch
Visualization TLE readout
Latitude-31.87624°
Longitude90.01238°
Altitude1,130.339 km
Speed7.266 km/s
Apparent Right ascension05h 28m 17s
Apparent Declination-40° 41' 60"
Sunlit
Object is in daylight
Visualization observer readout
Local Sidereal Time14:49:02
Azimuth255.397° W
Elevation-59.893°
Doppler factor1
Orbital elements
Apogee altitude1,128.248 km
Perigee altitude1,018.483 km
Semi-major axis7,451.503 km
Eccentricity0.0073653
Inclination89.8893°
RAAN291.4537°
Arg. of periapsis354.2663°
True anomaly66.401°
Mean anomaly65.6293°
Eccentric anomaly66.01486°
Mean motion3.37425 °/min
BSTAR0.00012966
Orbital period106.69 mins
Loading maneuver chart data...

THOR ABLESTAR DEB Visibility forecast

Observer location: undefined°, undefined

Span
Click to sort rows by Start time (UTC) header in descending order
Start Az.
Max El. time (UTC)
Max El. Az.
Max El.
End time (UTC)
End Az.
11 mins2024-12-21 20:10:41.528Z170.728° S2024-12-21 20:15:41.528Z109.823° ESE44.5°2024-12-21 20:21:41.528Z0.642° NNE
4 mins2024-12-21 22:01:41.528Z268.227° W2024-12-21 22:03:41.528Z288.819° WNW14.209°2024-12-21 22:05:41.528Z308.331° NW
11 mins2024-12-22 07:21:41.528Z25.979° NE2024-12-22 07:26:41.528Z88.626° E30.821°2024-12-22 07:32:41.528Z149.805° SSE
10 mins2024-12-22 09:08:41.528Z336.508° NNW2024-12-22 09:12:41.528Z286.731° WNW31.213°2024-12-22 09:18:41.528Z219.215° SW
|